Orbital Elements
Epoch 2014 Dec. 9.0 TT = JDT 2457000.5
T 2014 Nov. 24.69850 TT MPCW
q 2.1662206 (2000.0) P Q
n 0.14571850 Peri. 8.44820 +0.95845398 +0.27443196
a 3.5765111 Node 335.19429 -0.27134995 +0.79309169
e 0.3943202 Incl. 10.68699 -0.08794979 +0.54377631
P 6.76
From 330 observations 2001 Aug. 17-2014 Dec. 1, mean residual 0".7.
Nongravitational parameters A1 = +1.62, A2 = -0.1622.
|